Regional Weather Roundup
Issued by NWS Kansas City/Pleasant Hill, MO

Home | Current Version | Previous Version | Graphics & Text | Print | Product List | Glossary Off
Versions: 1 2 3 4 5 6 7 8 9 10 11 12 13 14 15 16 17 18 19 20 21 22 23 24 25 26 27 28

000
ASUS43 KEAX 280010
RWREAX

WEATHER ROUNDUP FOR EASTERN KANSAS AND NORTHWEST MISSOURI
NATIONAL WEATHER SERVICE KANSAS CITY/PLEASANT HILL MO
700 PM CDT TUE JUN 27 2017

KSZ040-057-103>105-MOZ028-029-037-043-280100-
...KANSAS CITY METROPOLITAN AREA...

CITY           SKY/WX    TMP DP  RH WIND       PRES   REMARKS
K.C. INTL      MOSUNNY   78  67  68 S10       29.91F
6HR MIN TEMP:  76; 6HR MAX TEMP:  81;

K.C. DOWNTOWN  MOSUNNY   81  65  58 S14G21    29.90F
6HR MIN TEMP:  78; 6HR MAX TEMP:  83;

LEES SUMMIT    MOSUNNY   79  65  62 S13       29.93F
6HR MIN TEMP:  76; 6HR MAX TEMP:  81;

OLATHE - IXD   CLOUDY    79  66  64 S18G24    29.92F
6HR MIN TEMP:  78; 6HR MAX TEMP:  83;

OLATHE - OJC   MOSUNNY   78  67  68 S17G25    29.92F
6HR MIN TEMP:  75; 6HR MAX TEMP:  81;

LAWRENCE       PTSUNNY   81  68  64 SE18      29.89F

$$

MOZ001>008-011>017-020>025-030>033-038>040-044>046-053-054-280100-
...NORTHERN AND CENTRAL MISSOURI...

CITY           SKY/WX    TMP DP  RH WIND       PRES   REMARKS
ST. JOSEPH     PTSUNNY   80  67  64 S15       29.88F
6HR MIN TEMP:  76; 6HR MAX TEMP:  81;

WARRENSBURG    MOSUNNY   79  64  61 SE9       29.94F
WHITEMAN AFB   MOSUNNY   79  68  68 S13       29.94F
6HR MIN TEMP:  76; 6HR MAX TEMP:  81;

CLINTON        MOSUNNY   81  66  61 S8        29.96F
SEDALIA        MOSUNNY   79  67  66 SE10      29.98F
6HR MIN TEMP:  76; 6HR MAX TEMP:  82;

WARSAW         NOT AVBL
CHILLICOTHE      N/A     78  62  57 SE14G20   29.94F
6HR MIN TEMP:  76; 6HR MAX TEMP:  81;

KIRKSVILLE     SUNNY     77  54  44 SE14      29.97F
6HR MIN TEMP:  75; 6HR MAX TEMP:  79;


$$

MOZ041-047>049-056>058-063>065-088>090-097-280100-
...EASTERN AND SOUTHERN MISSOURI...

CITY           SKY/WX    TMP DP  RH WIND       PRES   REMARKS
ST. LOUIS INTL MOSUNNY   81  48  31 S8        30.02F
6HR MIN TEMP:  77; 6HR MAX TEMP:  83;

SPIRIT OF STL  SUNNY     80  53  39 SE5       30.00F
COLUMBIA       SUNNY     79  61  53 SE10      29.99F
JEFFERSON CITY MOSUNNY   81  59  47 S10       29.98F
ROLLA          SUNNY     78  59  51 SE8       30.00F
OSAGE BEACH    CLOUDY    79  65  62 SE6       30.00F
SPRINGFIELD    SUNNY     79  63  57 S13       29.99F
BRANSON        PTSUNNY   81  61  50 SE8       30.03F
JOPLIN         PTSUNNY   84  65  52 S12       29.96F
WEST PLAINS    SUNNY     77  63  61 SE7       30.05F

$$

IAZ060-094-KSZ022-034>040-054-083-096-NEZ052-066-093-280100-
...KANSAS...SOUTHEAST NEBRASKA AND IOWA...

CITY           SKY/WX    TMP DP  RH WIND       PRES   REMARKS
TOPEKA         SUNNY     81  69  67 SE17G25   29.87F
6HR MIN TEMP:  77; 6HR MAX TEMP:  83;

MANHATTAN      MOSUNNY   85  69  58 S20G28    29.81F
EMPORIA        SUNNY     82  65  56 S23G30    29.87F
CHANUTE        SUNNY     85  62  46 S18G24    29.91F
WICHITA        MOSUNNY   88  68  51 S20G29    29.83F HX  91
OMAHA          PTSUNNY   79  63  57 S22G32    29.81F
LINCOLN        SUNNY     82  67  60 S21G32    29.78F
FALLS CITY     SUNNY     80  66  62 S15       29.84F
LAMONI         CLOUDY    76  60  57 S9G20     29.92F
DES MOINES     MOSUNNY   79  55  43 SE17      29.90F

$$





USA.gov is the U.S. government's official web portal to all federal, state and local government web resources and services.